Regional Weather Roundup
Issued by NWS Little Rock, AR

Home | Current Version | Previous Version | Graphics & Text | Print | Product List | Glossary On
Versions: 1 2 3 4 5 6 7 8 9 10 11 12 13 14 15 16 17 18 19 20 21 22 23 24 25 26 27 28 29 30 31 32 33 34 35 36 37 38 39 40 41 42 43 44 45 46 47 48 49
000
ASUS44 KLZK 030005
RWRLZK

WEATHER ROUNDUP FOR ARKANSAS
NATIONAL WEATHER SERVICE LITTLE ROCK AR
700 PM CDT SUN AUG 02 2015

NOTE: "FAIR" INDICATES FEW OR NO CLOUDS BELOW 12,000 FEET WITH NO
SIGNIFICANT WEATHER AND/OR OBSTRUCTIONS TO VISIBILITY.

ARZ001-003-010-029-030100-
NORTHWEST ARKANSAS

CITY           SKY/WX    TMP DP  RH WIND       PRES   REMARKS
FAYETTEVILLE   SUNNY     87  65  47 CALM      29.93F HX  89
6HR MIN TEMP:  86; 6HR MAX TEMP:  90;

FORT SMITH     PTSUNNY   92  65  40 NE8       29.86F HX  94
6HR MIN TEMP:  91; 6HR MAX TEMP:  97;

HARRISON       SUNNY     87  66  49 W5        29.94F HX  89
6HR MIN TEMP:  87; 6HR MAX TEMP:  92;

BENTONVILLE    SUNNY     88  61  40 SW6       29.95F HX  88
6HR MIN TEMP:  88; 6HR MAX TEMP:  91;

ROGERS         SUNNY     88  65  46 VRB6      29.94F HX  90
6HR MIN TEMP:  87; 6HR MAX TEMP:  92;

SILOAM SPGS    SUNNY     88  64  45 SW7       29.92F HX  89
6HR MIN TEMP:  88; 6HR MAX TEMP:  91;

HIGHFILL       SUNNY     87  66  49 SW5       29.93F HX  89
6HR MIN TEMP:  87; 6HR MAX TEMP:  92;

SPRINGDALE     SUNNY     88  63  42 SW7       29.95F HX  88
$$

ARZ004-005-016-030100-
NORTH CENTRAL ARKANSAS

CITY           SKY/WX    TMP DP  RH WIND       PRES   REMARKS
BATESVILLE     SUNNY     91  64  40 E3        29.88F HX  93
6HR MIN TEMP:  91; 6HR MAX TEMP:  93;

FLIPPIN        MOSUNNY   90  66  45 CALM      29.89S HX  92
6HR MIN TEMP:  90; 6HR MAX TEMP:  95;

MTN HOME       MOSUNNY   86  69  56 CALM      29.90F HX  90
6HR MIN TEMP:  86; 6HR MAX TEMP:  92;

$$

ARZ040-041-030100-
WEST CENTRAL ARKANSAS

CITY           SKY/WX    TMP DP  RH WIND       PRES   REMARKS
MENA           SUNNY     95  55  26 SE6       29.91F HX  93
MOUNT IDA      SUNNY     91  58  32 CALM      29.88F HX  90
6HR MIN TEMP:  91; 6HR MAX TEMP:  97;

$$

ARZ009-017-025-026-028-030100-
NORTHEAST ARKANSAS

CITY           SKY/WX    TMP DP  RH WIND       PRES   REMARKS
JONESBORO      MOSUNNY   88  67  49 SW6       29.88F HX  91
6HR MIN TEMP:  88; 6HR MAX TEMP:  92;

NEWPORT        SUNNY     91  70  50 S6        29.89F HX  96
6HR MIN TEMP:  91; 6HR MAX TEMP:  96;

WALNUT RIDGE   MOSUNNY   90  66  45 S7        29.87F HX  92
6HR MIN TEMP:  90; 6HR MAX TEMP:  93;

BLYTHEVILLE    PTSUNNY   88  71  57 W5        29.89F HX  94
6HR MIN TEMP:  88; 6HR MAX TEMP:  93;

$$

ARZ022-023-033-042-044-030100-
CENTRAL ARKANSAS

CITY           SKY/WX    TMP DP  RH WIND       PRES   REMARKS
LITTLE ROCK    MOSUNNY   92  65  40 SE9       29.88S HX  94
6HR MIN TEMP:  92; 6HR MAX TEMP:  97;

N LITTLE ROCK  MOSUNNY   91  67  44 SE10      29.88S HX  94
6HR MIN TEMP:  91; 6HR MAX TEMP:  97;

JACKSONVILLE   SUNNY     94  64  37 S8        29.87F HX  95
6HR MIN TEMP:  94; 6HR MAX TEMP:  98;

SEARCY         SUNNY     91  71  51 S6        29.89F HX  97
6HR MIN TEMP:  91; 6HR MAX TEMP:  96;

HOT SPRINGS    SUNNY     95  56  26 SW7       29.88F HX  93
6HR MIN TEMP:  93; 6HR MAX TEMP:  98;

RUSSELLVILLE   SUNNY     94  61  33 CALM      29.86F HX  94
6HR MIN TEMP:  93; 6HR MAX TEMP:  97;

CLINTON        FAIR      88  72  58 CALM      29.90S HX  94
$$

ARZ036-030100-
EAST ARKANSAS

CITY           SKY/WX    TMP DP  RH WIND       PRES   REMARKS
WEST MEMPHIS   SUNNY     88  73  61 SE7       29.88F HX  95
6HR MIN TEMP:  88; 6HR MAX TEMP:  94;

$$

ARZ050-053-066-070-073-030100-
SOUTHWEST ARKANSAS

CITY           SKY/WX    TMP DP  RH WIND       PRES   REMARKS
ARKADELPHIA    FAIR      97  58  27 S3        29.87F HX  96
6HR MIN TEMP:  96; 6HR MAX TEMP: 101;

CAMDEN         SUNNY     93  63  36 CALM      29.87F HX  94
TEXARKANA      SUNNY     93  60  33 E3        29.88F HX  93
6HR MIN TEMP:  92; 6HR MAX TEMP:  97;

EL DORADO      SUNNY     94  61  33 NE5       29.88F HX  94
6HR MIN TEMP:  93; 6HR MAX TEMP:  98;

DE QUEEN       SUNNY     92  62  36 SE7       29.86F HX  92
6HR MIN TEMP:  92; 6HR MAX TEMP:  97;

$$

ARZ056-057-069-030100-
SOUTHEAST ARKANSAS

CITY           SKY/WX    TMP DP  RH WIND       PRES   REMARKS
PINE BLUFF     SUNNY     92  68  45 E3        29.88F HX  96
6HR MIN TEMP:  92; 6HR MAX TEMP:  96;

STUTTGART      SUNNY     91  64  40 MISG      29.89F HX  93
6HR MIN TEMP:  90; 6HR MAX TEMP:  95;

MONTICELLO     SUNNY     92  64  39 E6        29.88F HX  93
6HR MIN TEMP:  92; 6HR MAX TEMP:  97;


$$





USA.gov is the U.S. government's official web portal to all federal, state and local government web resources and services.